Weather History for Flagstaff, AZ

Change the Weather History Date:

Monday, November 15, 2010

  Actual Average Record
Temperature  
Mean Temperature 40 °F 37 °F  
Max Temperature 53 °F 51 °F 70 °F (1975)
Min Temperature 26 °F 23 °F 2 °F (1985)
Degree Days  
Heating Degree Days 25 28  
Month to date heating degree days 362 385  
Since 1 July heating degree days 1052 1268  
Cooling Degree Days 0 0  
Month to date cooling degree days 0 0  
Year to date cooling degree days 160 117  
Moisture  
Dew Point 25 °F    
Average Humidity 58    
Maximum Humidity 85    
Minimum Humidity 30    
Precipitation  
Precipitation 0.00 in 0.06 in 1.25 in (1991)
Month to date precipitation 0.31 0.84  
Year to date precipitation 23.01 19.07  
Snow  
Snow 0.00 in 0.30 in 11.80 in (1991)
Month to date snowfall T 3.7  
Since 1 July snowfall T 5.2  
Snow Depth -    
Sea Level Pressure  
Sea Level Pressure 29.96 in    
Wind  
Wind Speed 6 mph (NW)    
Max Wind Speed 18 mph    
Max Gust Speed 32 mph    
Visibility 10 miles    
Events      
T = Trace of Precipitation, MM = Missing Value Source: NWS Daily Summary

Daily Weather History Graph

Daily Weather History Graph

Search for Another Location

Airport:

Trip Planner

Search our weather history database for the weather conditions in past years. The results will help you decide how hot, cold, wet, or windy it might be!

Date:

Astronomy

Nov. 15, 2010 Rise Set
Actual Time 7:01 AM MST 5:20 PM MST
Civil Twilight 6:34 AM MST 5:47 PM MST
Nautical Twilight 6:03 AM MST 6:18 PM MST
Astronomical Twilight 5:33 AM MST 6:48 PM MST
Moon 1:54 PM MST (11/15) 1:22 AM MST (11/15)
Length of Visible Light 11h 13m
Length of Day
10h 19m
Waxing Gibbous, 69% of the Moon is Illuminated
Nov 15
Waxing Gibbous
Nov 21
Full
Nov 28
Last Quarter
Dec 5
New
Dec 13
First Quarter

Hourly Weather History & Observations

Time (MST) Temp. Windchill Dew Point Humidity Pressure Visibility Wind Dir Wind Speed Gust Speed Precip Events Conditions
12:57 AM 36.0 °F 32.1 °F 24.1 °F 62% 29.88 in 10.0 mi Variable 4.6 mph 18.4 mph N/A   Clear
1:57 AM 39.0 °F 32.8 °F 26.1 °F 60% 29.84 in 10.0 mi NW 9.2 mph - N/A   Clear
2:57 AM 39.0 °F 32.3 °F 27.0 °F 62% 29.84 in 10.0 mi NW 10.4 mph 21.9 mph N/A   Clear
3:57 AM 37.0 °F 30.4 °F 26.1 °F 65% 29.85 in 10.0 mi NW 9.2 mph - N/A   Clear
4:57 AM 34.0 °F 28.0 °F 26.1 °F 73% 29.88 in 10.0 mi West 6.9 mph - N/A   Clear
5:57 AM 30.9 °F 26.2 °F 26.1 °F 82% 29.93 in 10.0 mi SW 4.6 mph - N/A   Clear
6:57 AM 35.1 °F 31.0 °F 27.0 °F 72% 29.96 in 10.0 mi SW 4.6 mph - N/A   Clear
7:57 AM 36.0 °F - 28.0 °F 73% 29.99 in 10.0 mi Calm Calm - N/A   Clear
8:57 AM 42.1 °F - 28.0 °F 58% 29.94 in 10.0 mi Calm Calm - N/A   Clear
9:57 AM 45.0 °F 40.6 °F 28.9 °F 53% 29.94 in 10.0 mi West 8.1 mph - N/A   Partly Cloudy
10:57 AM 48.0 °F - 26.1 °F 42% 29.96 in 10.0 mi Variable 5.8 mph - N/A   Scattered Clouds
11:57 AM 50.0 °F - 25.0 °F 38% 29.95 in 10.0 mi NNW 11.5 mph 26.5 mph N/A   Clear
12:57 PM 51.1 °F - 24.1 °F 35% 29.91 in 10.0 mi NNW 11.5 mph 21.9 mph N/A   Clear
1:57 PM 51.1 °F - 21.9 °F 32% 29.89 in 10.0 mi North 13.8 mph 26.5 mph N/A   Clear
2:57 PM 51.1 °F - 21.9 °F 32% 29.90 in 10.0 mi North 11.5 mph 19.6 mph N/A   Clear
3:57 PM 50.0 °F - 23.0 °F 35% 29.93 in 10.0 mi Variable 5.8 mph 19.6 mph N/A   Clear
4:57 PM 48.0 °F - 24.1 °F 39% 29.97 in 10.0 mi NNW 8.1 mph - N/A   Clear
5:57 PM 43.0 °F 41.3 °F 25.0 °F 49% 30.03 in 10.0 mi NNW 3.5 mph - N/A   Clear
6:57 PM 37.0 °F - 25.0 °F 62% 30.06 in 10.0 mi Calm Calm - N/A   Clear
7:57 PM 36.0 °F - 24.1 °F 62% 30.08 in 10.0 mi Calm Calm - N/A   Clear
8:57 PM 37.0 °F 32.4 °F 23.0 °F 57% 30.05 in 10.0 mi NNE 5.8 mph - N/A   Clear
9:57 PM 33.1 °F 30.0 °F 23.0 °F 66% 30.07 in 10.0 mi SE 3.5 mph - N/A   Clear
10:57 PM 30.0 °F - 21.9 °F 72% 30.07 in 10.0 mi Calm Calm - N/A   Clear
11:57 PM 27.0 °F - 21.0 °F 78% 30.07 in 10.0 mi Calm Calm - N/A   Clear